Weather Roundup
Issued by NWS

Home | Current Version | Previous Version | Text Only | Print | Product List | Glossary On
Versions: 1 2 3 4 5 6 7 8 9 10 11 12 13 14 15 16 17 18 19 20 21 22 23 24 25 26 27 28 29 30 31 32 33 34 35 36 37 38 39 40 41 42 43 44 45 46 47 48 49 50
000
NZUS93 KARX 011159
HRRWXR

CURRENT HOURLY OBSERVATIONS ACROSS
MUCH OF THE UPPER MISSISSIPPI VALLEY
NATIONAL WEATHER SERVICE LA CROSSE WI
700 AM CDT WED JUL 01 2015


...SOUTHEAST MINNESOTA...


CITY           SKY/WX    TMP DP  RH WIND       PRES   REMARKS
ROCHESTER      SUNNY     54  50  86 E8        29.99R
ROCHESTER/MAYO FAIR      55  51  85 E6        29.99R
WINONA         MOSUNNY   55  50  82 E3        29.99R
AUSTIN         SUNNY     55  52  88 E5        29.97R
ALBERT LEA     SUNNY     57  54  88 CALM      29.98R
DODGE CENTER   SUNNY     55  52  88 E6        29.98R
PRESTON        SUNNY     54  49  85 E7        29.99S
OWATONNA       MOSUNNY   57  52  82 E8        29.98R
FARIBAULT      MOSUNNY   55  52  88 CALM      29.99R
$$

...ELSEWHERE IN MINNESOTA...


CITY           SKY/WX    TMP DP  RH WIND       PRES   REMARKS
MINNEAPOLIS    CLOUDY    59  49  69 E8        30.00R
INTNL FALLS    SUNNY     51  49  92 CALM      29.98R
DULUTH         MOSUNNY   52  49  89 CALM      30.02R
RED WING       MOSUNNY   55  48  76 E5        29.99R
REDWOOD FALLS  CLOUDY    61  56  83 E7        29.96R
MANKATO        MOSUNNY   61  52  72 E7        29.96F
WORTHINGTON    CLOUDY    61  55  82 SE8       29.94F
FAIRMONT       MOSUNNY   57  52  82 E7        29.95R
$$

...SOUTHWEST WISCONSIN...


CITY           SKY/WX    TMP DP  RH WIND       PRES   REMARKS
LA CROSSE      MOSUNNY   56  51  84 CALM      29.99R
PRAIRIE DU CHI SUNNY     54  53  95 CALM      29.97R
BOSCOBEL       SUNNY     55  54  96 CALM      29.98R
LONE ROCK      MOSUNNY   56  50  80 NE3       29.99R
PLATTEVILLE    PTSUNNY   57  56  96 NE3       29.97R
FORT MC COY    MOSUNNY   44  43  97 CALM      30.00S
CAMP DOUGLAS   FOG       43  43 100 W3        30.00R VSB 1/4
VIROQUA        FAIR      53  51  95 NE7       29.98S
WIS DELLS      SUNNY     52  46  82 CALM      29.98S
$$

...ELSEWHERE IN WISCONSIN...


CITY           SKY/WX    TMP DP  RH WIND       PRES   REMARKS
MILWAUKEE      MOSUNNY   55  47  74 NW8       29.96S
MADISON        PTSUNNY   56  46  69 N8        29.98R
GREEN BAY      CLOUDY    51  45  79 N9        29.97S
EAU CLAIRE     NOT AVBL
BLACK RVR FLS  FAIR      47  47 100 CALM      30.00S
MEDFORD        SUNNY     43  42  97 CALM      30.02R
WAUSAU         SUNNY     49  46  90 NW5       29.99R
WIS RAPIDS     SUNNY     52  47  83 N6        30.01R
MARSHFIELD     SUNNY     50  45  83 N3        30.01R
RICE LAKE      MOSUNNY   49  48  95 CALM      30.04R
$$

...NORTHEAST IOWA...


CITY           SKY/WX    TMP DP  RH WIND       PRES   REMARKS
DECORAH          N/A    N/A N/A N/A MISG        N/A
MASON CITY     SUNNY     57  55  93 E5        29.98R
CHARLES CITY   SUNNY     57  57 100 E8        29.96R
OELWEIN        SUNNY     55  55 100 NE5       29.96R
$$

...ELSEWHERE IN IOWA...


CITY           SKY/WX    TMP DP  RH WIND       PRES   REMARKS
DES MOINES     PTSUNNY   68  61  78 E7        29.89S
IOWA CITY      MOSUNNY   62  57  83 NE6       29.94R
FORT DODGE     PTSUNNY   63  57  82 E6        29.96R
$$

...NORTHERN ILLINOIS...


CITY           SKY/WX    TMP DP  RH WIND       PRES   REMARKS
CHICAGO-OHARE  CLOUDY    57  51  80 NE3       29.97R
CHICAGO-MIDWAY CLOUDY    60  53  77 NE8       29.96R
MOLINE         MOSUNNY   63  59  87 E7        29.92R
ROCKFORD       CLOUDY    59  54  83 E6        29.98R
PEORIA         PTSUNNY   69  63  81 E5        29.91S HAZE
$$

NOTE: "FAIR" INDICATES FEW OR NO CLOUDS BELOW 12,000 FEET WITH NO
SIGNIFICANT WEATHER AND/OR OBSTRUCTIONS TO VISIBILITY. WIND
SPEEDS ARE IN MILES-PER-HOUR.



USA.gov is the U.S. government's official web portal to all federal, state and local government web resources and services.